Content
SEND FEEDBACK

Daily
Averages
Monthly
Summary
United States of America

INARAJAN, GUAM


Home > North America > United States > Guam
Elevation: 280 feet     Latitude: 13 18N     Longitude: 144 44E

WEATHER
 
SELECT A DAY
Number of Records: 351,678;   Date Range: 1/1/95 - 10/21/14
 
SHARE

PRINT THIS DATA

[ ← Previous Day ]
WEATHER ALMANAC - JUNE 24, 2013
[ Next Day → ]
[ °C ]   °F
We're sorry. There is no daily almanac available for Inarajan, Guam on June 24, 2013.
WEATHER BY HOUR - JUNE 24, 2013
[ °C ]   °F
Local TimeTemperatureDewpointHumidityBarometerVisibilityWind DirectionWind SpeedGust SpeedPrecipitationEventsConditions
12:14 AM78.8 °F75.2 °F89 %29.89 in10.0 miEast (90°)12.7 mphMostly Cloudy
12:55 AM78.6 °F74.3 °F87 %29.89 in10.0 miEast (80°)10.4 mphClear
1:40 AM78.8 °F77.0 °F94 %29.87 in10.0 miEast (80°)11.5 mphMostly Cloudy
1:45 AM78.8 °F77.0 °F94 %29.87 in10.0 miEast (80°)10.4 mphScattered Clouds
1:52 AM78.8 °F77.0 °F94 %29.87 in10.0 miEast (80°)9.2 mphMostly Cloudy
1:55 AM79.5 °F77.0 °F92 %29.87 in10.0 miEast (80°)11.5 mphMostly Cloudy
2:46 AM80.6 °F77.0 °F89 %29.85 in10.0 miEast (80°)11.5 mphMostly Cloudy
2:47 AM80.6 °F77.0 °F89 %29.85 in10.0 miEast (80°)11.5 mphMostly Cloudy
2:55 AM79.9 °F76.6 °F90 %29.85 in10.0 miEast (100°)10.4 mphMostly Cloudy
2:56 AM80.6 °F77.0 °F89 %29.85 in10.0 miEast (100°)10.4 mphMostly Cloudy
3:01 AM80.6 °F77.0 °F89 %29.86 in10.0 miENE (70°)13.8 mphMostly Cloudy
3:02 AM78.8 °F77.0 °F94 %29.85 in10.0 miENE (70°)13.8 mphRainLight Rain
3:12 AM78.8 °F77.0 °F94 %29.85 in10.0 miENE (60°)12.7 mphMostly Cloudy
3:16 AM78.8 °F75.2 °F89 %29.85 in10.0 miENE (70°)12.7 mphMostly Cloudy
3:21 AM78.8 °F75.2 °F89 %29.85 in10.0 miENE (70°)13.8 mphScattered Clouds
3:55 AM79.0 °F75.4 °F89 %29.84 in10.0 miEast (90°)12.7 mph0.00 inClear
4:55 AM79.3 °F75.9 °F89 %29.85 in10.0 miEast (80°)11.5 mphScattered Clouds
5:03 AM78.8 °F75.2 °F89 %29.85 in10.0 miEast (80°)12.7 mphMostly Cloudy
5:21 AM78.8 °F75.2 °F89 %29.85 in10.0 miENE (70°)13.8 mphScattered Clouds
5:53 AM78.8 °F75.2 °F89 %29.85 in10.0 miEast (80°)15.0 mphMostly Cloudy
5:55 AM79.5 °F75.9 °F89 %29.85 in10.0 miENE (70°)13.8 mphMostly Cloudy
5:56 AM78.8 °F75.2 °F89 %29.86 in10.0 miENE (70°)12.7 mphMostly Cloudy
5:58 AM78.8 °F75.2 °F89 %29.86 in10.0 miENE (70°)13.8 mphMostly Cloudy
6:10 AM78.8 °F75.2 °F89 %29.86 in10.0 miEast (80°)13.8 mphScattered Clouds
6:12 AM78.8 °F75.2 °F89 %29.86 in10.0 miENE (70°)15.0 mphMostly Cloudy
6:14 AM78.8 °F75.2 °F89 %29.86 in10.0 miENE (70°)13.8 mphMostly Cloudy
6:46 AM80.6 °F77.0 °F89 %29.86 in10.0 miENE (70°)12.7 mphMostly Cloudy
6:53 AM80.6 °F77.0 °F89 %29.87 in10.0 miEast (80°)12.7 mphMostly Cloudy
6:55 AM80.2 °F76.5 °F88 %29.87 in10.0 miENE (70°)15.0 mphMostly Cloudy
6:59 AM80.6 °F77.0 °F89 %29.87 in10.0 miENE (70°)13.8 mphMostly Cloudy
7:00 AM80.6 °F77.0 °F89 %29.87 in10.0 miENE (70°)15.0 mphMostly Cloudy
7:04 AM80.6 °F75.2 °F84 %29.87 in10.0 miEast (80°)16.1 mphMostly Cloudy
7:11 AM80.6 °F77.0 °F89 %29.87 in10.0 miEast (80°)16.1 mphScattered Clouds
7:46 AM80.6 °F77.0 °F89 %29.88 in10.0 miEast (80°)16.1 mphMostly Cloudy
7:48 AM82.4 °F77.0 °F84 %29.88 in10.0 miEast (80°)16.1 mphScattered Clouds
7:55 AM82.0 °F76.3 °F83 %29.87 in10.0 miENE (70°)16.1 mphScattered Clouds
8:17 AM82.4 °F77.0 °F84 %29.88 in10.0 miENE (70°)17.3 mphMostly Cloudy
8:34 AM82.4 °F77.0 °F84 %29.88 in10.0 miENE (70°)17.3 mphScattered Clouds
8:36 AM82.4 °F75.2 °F79 %29.88 in10.0 miEast (80°)18.4 mphMostly Cloudy
8:38 AM82.4 °F75.2 °F79 %29.88 in10.0 miEast (80°)17.3 mphScattered Clouds
8:55 AM83.5 °F76.5 °F79 %29.88 in10.0 miEast (80°)16.1 mphScattered Clouds
9:01 AM84.2 °F77.0 °F79 %29.88 in10.0 miEast (80°)16.1 mph23.0 mphMostly Cloudy
9:12 AM84.2 °F77.0 °F79 %29.88 in10.0 miEast (80°)13.8 mphScattered Clouds
9:13 AM84.2 °F77.0 °F79 %29.88 in10.0 miEast (80°)12.7 mphMostly Cloudy
9:35 AM84.2 °F77.0 °F79 %29.88 in10.0 miEast (90°)17.3 mph23.0 mphScattered Clouds
9:39 AM84.2 °F77.0 °F79 %29.88 in10.0 miEast (90°)16.1 mphMostly Cloudy
9:54 AM86.0 °F77.0 °F74 %29.88 in10.0 miEast (90°)17.3 mphScattered Clouds
9:55 AM85.3 °F76.8 °F76 %29.88 in10.0 miEast (90°)17.3 mphScattered Clouds
10:06 AM86.0 °F77.0 °F74 %29.88 in10.0 miEast (90°)17.3 mphMostly Cloudy
10:28 AM86.0 °F77.0 °F74 %29.88 in10.0 miEast (90°)16.1 mph23.0 mphScattered Clouds
10:35 AM86.0 °F77.0 °F74 %29.88 in10.0 miENE (70°)17.3 mph24.2 mphMostly Cloudy
10:52 AM86.0 °F77.0 °F74 %29.89 in10.0 miEast (100°)16.1 mph23.0 mphScattered Clouds
10:55 AM85.5 °F77.7 °F78 %29.89 in10.0 miESE (110°)16.1 mphScattered Clouds
11:55 AM87.4 °F76.8 °F71 %29.88 in10.0 miEast (90°)16.1 mph23.0 mphPartly Cloudy
12:29 PM87.8 °F77.0 °F70 %29.87 in10.0 miEast (100°)16.1 mph25.3 mphMostly Cloudy
12:38 PM86.0 °F77.0 °F74 %29.87 in10.0 miEast (100°)15.0 mphMostly Cloudy
12:39 PM86.0 °F77.0 °F74 %29.87 in8.0 miEast (100°)16.1 mphMostly Cloudy
12:40 PM86.0 °F77.0 °F74 %29.87 in6.0 miESE (110°)13.8 mphRainLight Rain
12:47 PM84.2 °F78.8 °F84 %29.87 in5.0 miEast (100°)13.8 mphRainLight Rain
12:49 PM84.2 °F78.8 °F84 %29.87 in6.0 miEast (100°)15.0 mphHaze
12:55 PM83.7 °F78.4 °F84 %29.87 in9.0 miEast (90°)16.1 mph23.0 mph0.01 inMostly Cloudy
1:17 PM86.0 °F78.8 °F79 %29.86 in10.0 miEast (90°)15.0 mphMostly Cloudy
1:18 PM86.0 °F78.8 °F79 %29.86 in10.0 miEast (90°)16.1 mphMostly Cloudy
1:19 PM86.0 °F78.8 °F79 %29.86 in10.0 miEast (80°)15.0 mphMostly Cloudy
1:26 PM86.0 °F78.8 °F79 %29.86 in10.0 miEast (80°)16.1 mphScattered Clouds
1:40 PM86.0 °F78.8 °F79 %29.86 in10.0 miEast (80°)18.4 mph23.0 mphMostly Cloudy
1:50 PM84.2 °F78.8 °F84 %29.85 in10.0 miESE (110°)12.7 mphMostly Cloudy
1:52 PM84.2 °F78.8 °F84 %29.85 in10.0 miESE (110°)13.8 mphMostly Cloudy
1:53 PM84.2 °F78.8 °F84 %29.85 in8.0 miESE (110°)18.4 mph28.8 mphMostly Cloudy
1:54 PM84.2 °F78.8 °F84 %29.86 in4.0 miESE (110°)21.9 mph28.8 mphRainLight Rain
1:55 PM83.7 °F78.4 °F84 %29.86 in2.5 miESE (110°)18.4 mph28.8 mph0.04 inRainLight Rain
1:56 PM82.4 °F78.8 °F89 %29.86 in1.8 miESE (110°)17.3 mph28.8 mphRainHeavy Rain
1:57 PM82.4 °F78.8 °F89 %29.86 in1.2 miESE (110°)17.3 mph28.8 mphRainHeavy Rain
1:58 PM82.4 °F77.0 °F84 %29.86 in1.0 miESE (110°)15.0 mph28.8 mphRainHeavy Rain
2:00 PM80.6 °F77.0 °F89 %29.86 in0.8 miESE (120°)13.8 mph28.8 mphRainHeavy Rain
2:04 PM80.6 °F77.0 °F89 %29.86 in1.0 miESE (110°)12.7 mphRainLight Rain
2:06 PM78.8 °F77.0 °F94 %29.86 in1.2 miESE (110°)13.8 mphRainLight Rain
2:07 PM78.8 °F77.0 °F94 %29.86 in1.8 miESE (110°)13.8 mphRainLight Rain
2:08 PM78.8 °F77.0 °F94 %29.86 in2.5 miESE (110°)12.7 mphRainLight Rain
2:09 PM78.8 °F77.0 °F94 %29.86 in4.0 miESE (110°)11.5 mphRainLight Rain
2:16 PM80.6 °F78.8 °F94 %29.86 in10.0 miESE (120°)8.1 mphRainLight Rain
2:17 PM80.6 °F78.8 °F94 %29.86 in10.0 miESE (110°)9.2 mphMostly Cloudy
2:55 PM83.1 °F79.0 °F87 %29.84 in10.0 miEast (90°)11.5 mph0.10 inMostly Cloudy
2:59 PM82.4 °F78.8 °F89 %29.85 in10.0 miEast (90°)13.8 mphMostly Cloudy
3:01 PM82.4 °F78.8 °F89 %29.85 in10.0 miEast (100°)11.5 mphMostly Cloudy
3:36 PM84.2 °F77.0 °F79 %29.83 in10.0 miEast (100°)13.8 mphScattered Clouds
3:55 PM84.9 °F78.4 °F81 %29.83 in10.0 miEast (100°)15.0 mphScattered Clouds
3:59 PM84.2 °F77.0 °F79 %29.83 in10.0 miESE (120°)15.0 mphMostly Cloudy
4:00 PM84.2 °F77.0 °F79 %29.83 in10.0 miESE (120°)15.0 mphMostly Cloudy
4:03 PM84.2 °F77.0 °F79 %29.83 in10.0 miESE (110°)16.1 mphMostly Cloudy
4:05 PM84.2 °F77.0 °F79 %29.83 in10.0 miESE (110°)15.0 mphMostly Cloudy
4:07 PM84.2 °F78.8 °F84 %29.83 in10.0 miEast (100°)13.8 mphMostly Cloudy
4:08 PM84.2 °F78.8 °F84 %29.83 in10.0 miEast (100°)12.7 mphMostly Cloudy
4:15 PM84.2 °F78.8 °F84 %29.83 in10.0 miESE (120°)12.7 mphScattered Clouds
4:55 PM84.0 °F77.5 °F81 %29.84 in10.0 miEast (90°)12.7 mphPartly Cloudy
5:39 PM82.4 °F77.0 °F84 %29.84 in10.0 miESE (120°)10.4 mphRainLight Rain
5:42 PM82.4 °F77.0 °F84 %29.85 in7.0 miESE (120°)12.7 mph18.4 mphRainLight Rain
5:48 PM80.6 °F77.0 °F89 %29.85 in3.0 miESE (110°)10.4 mph27.6 mphRainLight Rain
5:49 PM80.6 °F77.0 °F89 %29.85 in3.0 miEast (100°)11.5 mph27.6 mphRainLight Rain
5:54 PM78.8 °F77.0 °F94 %29.85 in8.0 miEast (90°)9.2 mphMostly Cloudy
5:55 PM79.5 °F76.6 °F91 %29.85 in9.0 miEast (90°)9.2 mph0.02 inMostly Cloudy
5:58 PM78.8 °F77.0 °F94 %29.85 in10.0 miEast (100°)9.2 mphScattered Clouds
6:55 PM78.8 °F74.8 °F88 %29.86 in10.0 miSE (130°)13.8 mphPartly Cloudy
7:36 PM80.6 °F77.0 °F89 %29.87 in10.0 miESE (110°)9.2 mphMostly Cloudy
7:40 PM80.6 °F77.0 °F89 %29.87 in10.0 miENE (60°)9.2 mphLight Drizzle
7:43 PM80.6 °F77.0 °F89 %29.88 in10.0 miENE (70°)12.7 mphLight Drizzle
7:45 PM80.6 °F77.0 °F89 %29.88 in10.0 miENE (70°)13.8 mphLight Drizzle
7:50 PM80.6 °F77.0 °F89 %29.87 in10.0 miEast (80°)10.4 mphMostly Cloudy
7:51 PM80.6 °F77.0 °F89 %29.87 in10.0 miEast (80°)11.5 mphMostly Cloudy
7:55 PM79.7 °F76.6 °F90 %29.87 in10.0 miENE (70°)11.5 mph0.00 inMostly Cloudy
8:05 PM80.6 °F77.0 °F89 %29.88 in10.0 miEast (80°)12.7 mphMostly Cloudy
8:08 PM80.6 °F77.0 °F89 %29.88 in10.0 miEast (80°)15.0 mphScattered Clouds
8:34 PM78.8 °F75.2 °F89 %29.90 in10.0 miESE (120°)15.0 mphMostly Cloudy
8:36 PM78.8 °F75.2 °F89 %29.90 in4.0 miESE (110°)19.6 mph24.2 mphRainLight Rain
8:37 PM78.8 °F75.2 °F89 %29.90 in2.0 miESE (110°)18.4 mph24.2 mphRainHeavy Rain
8:38 PM78.8 °F75.2 °F89 %29.90 in1.5 miEast (100°)17.3 mph24.2 mphRainHeavy Rain
8:39 PM78.8 °F75.2 °F89 %29.90 in1.2 miEast (100°)13.8 mph24.2 mphRainHeavy Rain
8:40 PM78.8 °F75.2 °F89 %29.90 in1.0 miESE (110°)10.4 mph24.2 mphRainHeavy Rain
8:41 PM77.0 °F75.2 °F94 %29.90 in1.0 miESE (120°)11.5 mph24.2 mphRainHeavy Rain
8:42 PM77.0 °F75.2 °F94 %29.89 in1.0 miSE (130°)11.5 mph24.2 mphRainHeavy Rain
8:43 PM77.0 °F75.2 °F94 %29.90 in1.0 miSE (130°)12.7 mph24.2 mphRainLight Rain
8:47 PM77.0 °F75.2 °F94 %29.89 in1.5 miESE (120°)10.4 mphRainLight Rain
8:48 PM77.0 °F75.2 °F94 %29.89 in2.0 miESE (120°)11.5 mphRainLight Rain
8:49 PM77.0 °F75.2 °F94 %29.89 in3.0 miESE (120°)11.5 mphRainLight Rain
8:51 PM77.0 °F75.2 °F94 %29.89 in7.0 miESE (120°)11.5 mphRainLight Rain
8:52 PM77.0 °F75.2 °F94 %29.89 in9.0 miESE (120°)10.4 mphMostly Cloudy
8:55 PM77.0 °F75.6 °F95 %29.90 in10.0 miESE (120°)10.4 mph0.26 inScattered Clouds
9:55 PM78.8 °F75.9 °F91 %29.90 in10.0 miEast (90°)10.4 mphClear
10:36 PM78.8 °F77.0 °F94 %29.90 in10.0 miEast (80°)10.4 mphMostly Cloudy
10:39 PM78.8 °F77.0 °F94 %29.90 in10.0 miEast (80°)10.4 mphScattered Clouds
10:41 PM78.8 °F77.0 °F94 %29.90 in10.0 miEast (90°)11.5 mphMostly Cloudy
10:47 PM78.8 °F77.0 °F94 %29.90 in10.0 miEast (80°)10.4 mphScattered Clouds
10:48 PM78.8 °F77.0 °F94 %29.90 in10.0 miENE (70°)10.4 mphMostly Cloudy
10:55 PM79.5 °F76.6 °F91 %29.90 in10.0 miEast (80°)12.7 mphMostly Cloudy
11:04 PM80.6 °F77.0 °F89 %29.91 in10.0 miESE (110°)13.8 mphScattered Clouds
11:13 PM80.6 °F77.0 °F89 %29.91 in10.0 miEast (100°)10.4 mphMostly Cloudy
11:55 PM78.3 °F75.7 °F92 %29.91 in10.0 miENE (70°)11.5 mphMostly Cloudy
11:56 PM78.8 °F75.2 °F89 %29.91 in10.0 miENE (70°)11.5 mphMostly Cloudy
Hourly data recorded from PGUA, located miles away from Inarajan, Guam







STORIES FROM OUR PARTNERS